Lake Davis Weather Center

Moon Phase Calendar



Lake Davis Water Level
Online Cameras

 


      

Current Conditions in Portola
6/22/2021 2:12:27 PM

82°F
Feels Like 80
Clear
Humidity
13%
Pressure
29.8"
Wind
14.4 mph (WSW)
Dew Point
27°F
UV Index
10/10 (Very High)
Visibility
6 mi

Hourly Forecast

Date & Time Tue, Jun 22
2:00 PM
Tue, Jun 22
3:00 PM
Tue, Jun 22
4:00 PM
Tue, Jun 22
5:00 PM
Tue, Jun 22
6:00 PM
Tue, Jun 22
7:00 PM
Tue, Jun 22
8:00 PM
Tue, Jun 22
9:00 PM
Tue, Jun 22
10:00 PM
Tue, Jun 22
11:00 PM
Wed, Jun 23
12:00 AM
Wed, Jun 23
1:00 AM
Wed, Jun 23
2:00 AM
Wed, Jun 23
3:00 AM
Wed, Jun 23
4:00 AM
Wed, Jun 23
5:00 AM
Wed, Jun 23
6:00 AM
Wed, Jun 23
7:00 AM
Wed, Jun 23
8:00 AM
Wed, Jun 23
9:00 AM
Wed, Jun 23
10:00 AM
Wed, Jun 23
11:00 AM
Wed, Jun 23
12:00 PM
Wed, Jun 23
1:00 PM
Wed, Jun 23
2:00 PM
Wed, Jun 23
3:00 PM
Wed, Jun 23
4:00 PM
Wed, Jun 23
5:00 PM
Wed, Jun 23
6:00 PM
Wed, Jun 23
7:00 PM
Wed, Jun 23
8:00 PM
Wed, Jun 23
9:00 PM
Wed, Jun 23
10:00 PM
Wed, Jun 23
11:00 PM
Thu, Jun 24
12:00 AM
Thu, Jun 24
1:00 AM
Thu, Jun 24
2:00 AM
Thu, Jun 24
3:00 AM
Thu, Jun 24
4:00 AM
Thu, Jun 24
5:00 AM
Thu, Jun 24
6:00 AM
Thu, Jun 24
7:00 AM
Thu, Jun 24
8:00 AM
Thu, Jun 24
9:00 AM
Thu, Jun 24
10:00 AM
Thu, Jun 24
11:00 AM
Thu, Jun 24
12:00 PM
Thu, Jun 24
1:00 PM
Condition
Clear

Clear

Clear

Clear

Clear

Clear

Clear

Clear

Clear

Clear

Clear

Clear

Clear

Clear

Clear

Clear

Clear

Clear

Clear

Clear

Clear

Clear

Clear

Clear

Clear

Clear

Clear

Clouds

Clouds

Clouds

Clouds

Clouds

Clouds

Clouds

Clouds

Clouds

Clouds

Clouds

Clouds

Clouds

Clouds

Clouds

Clouds

Clouds

Clouds

Clouds

Clouds

Clouds
Temperature 82°F82°F81°F79°F76°F72°F65°F55°F52°F50°F49°F48°F47°F47°F47°F47°F48°F56°F64°F69°F73°F75°F77°F78°F78°F78°F77°F75°F73°F70°F63°F55°F52°F52°F54°F52°F54°F50°F51°F53°F53°F57°F65°F70°F74°F77°F80°F80°F
Feels Like 80°F79°F79°F79°F75°F70°F63°F53°F50°F50°F49°F48°F47°F47°F47°F47°F48°F53°F62°F67°F70°F73°F75°F76°F77°F76°F75°F73°F71°F68°F61°F52°F49°F49°F51°F49°F51°F48°F48°F51°F50°F55°F62°F68°F72°F76°F80°F80°F
Cloudiness 2%2%2%2%0%0%0%0%0%0%0%0%0%0%0%1%0%0%0%0%0%0%0%0%2%3%6%15%59%42%28%21%18%32%100%97%98%97%95%96%100%72%78%78%64%54%85%92%
Visibility 6 mi6 mi6 mi6 mi6 mi6 mi6 mi6 mi6 mi6 mi6 mi6 mi6 mi6 mi6 mi6 mi6 mi6 mi6 mi6 mi6 mi6 mi6 mi6 mi6 mi6 mi6 mi6 mi6 mi6 mi6 mi6 mi6 mi6 mi6 mi6 mi6 mi6 mi6 mi6 mi6 mi6 mi6 mi6 mi6 mi6 mi6 mi6 mi
Precipitation 0%0%0%0%0%0%0%0%0%0%0%0%0%0%0%0%0%0%0%0%0%0%0%0%0%0%0%0%0%0%0%0%0%0%0%0%0%0%0%0%0%0%0%0%0%0%0%0%
Humidity 13%14%15%16%18%24%36%51%61%67%70%72%72%72%71%70%67%51%32%22%17%15%14%14%15%17%19%21%23%26%35%47%54%54%51%55%52%60%57%51%53%45%34%25%21%19%18%18%
Dew Point 27°F28°F29°F30°F30°F33°F37°F38°F39°F39°F40°F39°F39°F39°F38°F38°F37°F38°F34°F29°F26°F24°F24°F25°F27°F30°F31°F32°F33°F33°F36°F35°F36°F36°F36°F36°F37°F37°F36°F36°F36°F36°F36°F33°F32°F33°F33°F33°F
Pressure 29.8"29.8"29.8"29.77"29.77"29.8"29.83"29.88"29.94"29.94"29.94"29.94"29.97"29.97"29.97"29.97"29.97"29.94"29.91"29.88"29.85"29.85"29.83"29.83"29.8"29.8"29.8"29.83"29.85"29.85"29.91"29.97"30"30.03"30.03"30.03"30.03"30.03"30.03"30.03"30.03"30.03"30"29.97"29.97"29.94"29.91"29.88"
Wind Speed 14.4 mph15 mph14.7 mph14 mph13.4 mph11.6 mph7.5 mph4.8 mph3.8 mph2.6 mph1.2 mph0.6 mph0.9 mph2 mph2.7 mph3 mph2.9 mph1.9 mph4.4 mph7.6 mph9.2 mph11.1 mph12.8 mph14 mph15.6 mph15.6 mph15.1 mph13.3 mph10.8 mph10.7 mph6.6 mph4.7 mph3.6 mph2.8 mph3.6 mph3 mph2.4 mph1.5 mph1.4 mph3.2 mph1.2 mph0.5 mph0.7 mph2.3 mph3.3 mph3.8 mph4.6 mph4.3 mph
Wind
Direction
245°
WSW
244°
WSW
238°
WSW
235°
SW
232°
SW
233°
SW
244°
WSW
243°
WSW
246°
WSW
254°
WSW
222°
SW
189°
S
127°
SE
148°
SSE
163°
SSE
173°
S
175°
S
189°
S
203°
SSW
204°
SSW
212°
SSW
224°
SW
235°
SW
243°
WSW
248°
WSW
246°
WSW
247°
WSW
246°
WSW
254°
WSW
257°
WSW
256°
WSW
236°
SW
234°
SW
262°
W
256°
WSW
176°
S
244°
WSW
144°
SE
169°
S
261°
W
322°
NW
312°
NW
256°
WSW
293°
WNW
328°
NNW

N
26°
NNE
31°
NNE

Daily Forecast

Date High Low Precip. Humidity
Today
Jun 22

Clear
82 °F
50 °F
2%
13%
Wednesday
Jun 23

Clear
78 °F
47 °F
0%
14%
Thursday
Jun 24

Rain
79 °F
50 °F
80%
19%
Friday
Jun 25

Clouds
84 °F
49 °F
30%
16%
Saturday
Jun 26

Clear
89 °F
55 °F
0%
11%
Sunday
Jun 27

Clear
94 °F
61 °F
0%
13%
Monday
Jun 28

Clear
100 °F
63 °F
4%
11%
Tuesday
Jun 29

Clear
96 °F
62 °F
6%
11%
Wednesday
Jun 30

Clouds
92 °F
62 °F
6%
11%
Thursday
Jul 1

Rain
87 °F
60 °F
52%
21%
Friday
Jul 2

Clear
94 °F
56 °F
6%
15%
Saturday
Jul 3

Rain
94 °F
62 °F
24%
15%
Sunday
Jul 4

Clouds
90 °F
62 °F
2%
18%
Monday
Jul 5

Rain
85 °F
57 °F
48%
26%
Tuesday
Jul 6

Rain
84 °F
57 °F
38%
34%
Wednesday
Jul 7

Rain
85 °F
58 °F
38%
38%

Temperature 8-14 Day Outlook



Precipitation 8-14 Day Outlook




Quick Links
Lake Davis News
Lake Davis Photos
Lake Davis Videos




About Us
Contact Us
Site Map
Search Site
Advertise With Us
   
LakeDavis.LakesOnline.com
THE LAKE DAVIS WEBSITE

Copyright 2021, Lakes Online
Privacy    |    Legal